OBJECT H, 61901

Orbit data source: Space-Track

You're viewing an Uncataloged Satellite

Recently launched and/or uncataloged satellites may have evolving metadata. Metadata may include but not limited to: Owner, Maufacturer, Bus, Motor, and Mission.

OBJECT H, 61901 is a satellite owned by Yunyao yuhang (CN) in SSO that was launched on Mon, 11 Nov 2024 UTC via a LIJIAN-1 launch vehicle from the Jiuquan Satellite Launch Center, China (JSC). Unknown objects in Earth's orbit typically refer to objects detected orbiting the Earth but have not yet been identified or cataloged. These objects could be anything from previously untracked satellites, spent rocket stages, debris from satellite collisions, or even natural meteoroids temporarily captured by Earth's gravity.

Loading next visibility...
Identifier
61901, 2024-205H
Orbit
SSO
Last TLE update
7 hours ago
Origin
Flag of CNYYAO (CN / PRC)
Manufacturer
Changguang WJ
Mission
Operational Commercial Weather
Bus & Motor
YY-1, Unknown motor
Mass
~50 kg wet, ~50 kg dry
Launch date (UTC)
2024-11-11 (8 months ago)
Launch vehicle
LIJIAN-1
Launch site
Jiuquan Satellite Launch Center, China (JSC)
Object type
Unknown
Shape & HBR
Box + 1 Pan, 5 m
Radar Cross Section
5.339 m², Medium (>0.1 m² and < 1m²)

Expand to show TLE details & history

TLE from 7 hours ago
0 OBJECT H
1 61901U 24205H   25192.19414401  .00005231  00000-0  23325-3 0  9992
2 61901  97.4471 267.0188 0013013 155.8392 204.3456 15.21768147 36694
Epoch: 2025-07-11T04:39Z
TLE epoch observation values (Epoch: 2025-07-11T04:39:34.042Z)
Latitude
-0.00012°
Longitude
-92.2226°
Altitude
511.758 km
Speed
7.603 km/s
True Right ascension
17h 48m 04s
True Declination
0° 00' 00"
Sunlit
Object was in full shadow at epoch
Visualization orbit readout
Latitude
56.11269°
Longitude
-103.11172°
Altitude
511.155 km
Speed
7.613 km/s
Apparent Right ascension
13h 53m 30s
Apparent Declination
13° 53' 11"
Sunlit
Object is in daylight
Visualization observer readout
Local Sidereal Time
23:31:13
Azimuth
320.734° NNW
Elevation
-26.849°
Doppler factor
1
Orbital elements
Apogee altitude
506.42 km
Perigee altitude
488.525 km
Semi-major axis
6,875.609 km
Eccentricity
0.0013
Inclination
97.4471°
RAAN
267.0188°
Arg. of periapsis
155.8392°
True anomaly
Unknown
Mean anomaly
204.3456°
Eccentric anomaly
Unknown
Mean motion
3.80694 °/min
Orbital period
94.56 mins
BSTAR
0.00023325
Loading maneuver chart data...
Loading SW <> Apogee altitude chart data...
Loading historical data...
Loading historical data...
Loading historical data...
Loading historical data...
Loading historical data...
Loading historical data...
Loading historical data...

OBJECT H Visibility forecast

Observer location: undefined°, undefined°

Span
Click to sort rows by Start time (UTC) header in descending order
Start Az.
Max El. time (UTC)
Max El. Az.
Max El.
End time (UTC)
End Az.
7 mins2025-07-11 17:50:13.787Z13.414° NNE2025-07-11 17:54:13.787Z177.108° S42.567°2025-07-11 17:57:13.787Z190.706° SSW
4 mins2025-07-12 04:29:13.787Z116.651° SE2025-07-12 04:31:13.787Z62.068° ENE26.386°2025-07-12 04:33:13.787Z18.589° NNE
|